"Pseudo-MPEC" for P22133g

Created 2024 Nov 11 9:31:08 UT using Find_Orb

Click here for an explanation of pseudo-MPECs

 
 Astrometry: 
     P22133g* C2024 10 22.26686100 28 47.316+08 57 07.18   ~AM9l 21.75wXNEOCPF52
     P22133g  C2024 10 22.27944900 28 48.000+08 56 52.03   ~AM9l 21.78wXNEOCPF52
     P22133g  C2024 10 22.30332900 28 49.317+08 56 23.72   ~AM9l 22.39wXNEOCPF52

Station data:
(F52) Pan-STARRS 2, Haleakala  (N20.707382 W156.255910)  US/Hawaii.
   Observers J. Bulger, T. Dukes, T. Lowe, A. Schultz, M. Willman. Measurers
   K. Chambers, S. Chastel, T. de Boer, L. Denneau, J. Fairlamb, H.
   Flewelling, M. Huber, C.-C. Lin, E. Magnier, Y. Ramanjooloo, R. Wainscoat,
   R. Weryk. 1.8-m Ritchey-Chrétien + CCD.

Orbital elements:  P22133g
   Perihelion 2024 Aug 11.12390 +/- 44.5 TT =  2:58:24 (JD 2460533.62390)
Epoch 2024 Oct 22.0 TT = JDT 2460605.5   Earth MOID: 0.0064   Ve: 0.0795
M  21.92837025 +/- 23               Ma: 0.0248                   AutoNEOCP
n   0.30508569 +/- 0.287            Peri.   72.99761 +/- 80
a   2.18535244 +/- 1.37             Node   218.46189 +/- 54
e   0.6559166 +/- 0.247             Incl.    5.33267 +/- 4.7
P   3.23059                H 23.01  G  0.15   U 11.9  SR
q 0.75194348 +/- 0.393    Q 3.61876140 +/- 59.9           (J2000 ecliptic)
From 3 observations 2024 Oct. 22 (52.5 min); mean residual 0".08
Residuals in arcseconds: 
241022 F52  .08+  .07+    241022 F52  .12-  .10-    241022 F52  .04+  .03+    

Ephemerides (geocentric):
Date (UTC) HH   RA             Dec           delta  r     elong  mag " sig PA
---- --------  ------------   ------------  ------ ------ -----  --- --------
2024 11 11 10  00 46 43.254   +05 39 32.64  .57309 1.4912 143.8 23.8  42d  84
2024 11 11 11  00 46 45.388   +05 39 24.90  .57369 1.4917 143.7 23.8  42d  84
2024 11 11 12  00 46 47.523   +05 39 17.20  .57429 1.4921 143.7 23.8  42d  84
2024 11 11 13  00 46 49.658   +05 39 09.55  .57489 1.4925 143.7 23.8  42d  84
2024 11 11 14  00 46 51.794   +05 39 01.94  .57549 1.4929 143.6 23.8  42d  84
2024 11 11 15  00 46 53.930   +05 38 54.38  .57610 1.4933 143.6 23.8  42d  84
2024 11 11 16  00 46 56.067   +05 38 46.87  .57670 1.4937 143.6 23.8  42d  84
2024 11 11 17  00 46 58.204   +05 38 39.40  .57730 1.4941 143.5 23.8  42d  84
2024 11 11 18  00 47 00.342   +05 38 31.97  .57790 1.4945 143.5 23.8  42d  84
2024 11 11 19  00 47 02.480   +05 38 24.59  .57851 1.4949 143.5 23.8  42d  84
2024 11 11 20  00 47 04.618   +05 38 17.26  .57911 1.4953 143.4 23.8  42d  84
2024 11 11 21  00 47 06.757   +05 38 09.97  .57971 1.4957 143.4 23.8  42d  84
2024 11 11 22  00 47 08.897   +05 38 02.72  .58032 1.4961 143.4 23.8  42d  84
2024 11 11 23  00 47 11.036   +05 37 55.52  .58092 1.4965 143.3 23.8  42d  84
2024 11 12 00  00 47 13.177   +05 37 48.36  .58152 1.4970 143.3 23.8  42d  84
2024 11 12 01  00 47 15.317   +05 37 41.25  .58213 1.4974 143.3 23.8  42d  84
2024 11 12 02  00 47 17.459   +05 37 34.18  .58273 1.4978 143.2 23.8  42d  84
2024 11 12 03  00 47 19.600   +05 37 27.16  .58334 1.4982 143.2 23.8  42d  84
2024 11 12 04  00 47 21.742   +05 37 20.18  .58394 1.4986 143.2 23.8  42d  84
2024 11 12 05  00 47 23.885   +05 37 13.24  .58455 1.4990 143.1 23.8  42d  84
2024 11 12 06  00 47 26.028   +05 37 06.35  .58515 1.4994 143.1 23.8  42d  84
2024 11 12 07  00 47 28.172   +05 36 59.50  .58576 1.4998 143.1 23.8  42d  84
2024 11 12 08  00 47 30.316   +05 36 52.70  .58636 1.5002 143.0 23.8  42d  84
2024 11 12 09  00 47 32.460   +05 36 45.94  .58697 1.5006 143.0 23.8  42d  84
2024 11 12 10  00 47 34.605   +05 36 39.22  .58757 1.5010 143.0 23.8  42d  84
2024 11 12 11  00 47 36.751   +05 36 32.54  .58818 1.5014 142.9 23.8  42d  84
2024 11 12 12  00 47 38.896   +05 36 25.91  .58879 1.5018 142.9 23.8  42d  84
2024 11 12 13  00 47 41.043   +05 36 19.33  .58939 1.5022 142.8 23.8  42d  84
2024 11 12 14  00 47 43.190   +05 36 12.78  .59000 1.5026 142.8 23.9  42d  84
2024 11 12 15  00 47 45.337   +05 36 06.28  .59061 1.5031 142.8 23.9  42d  84
2024 11 12 16  00 47 47.485   +05 35 59.82  .59122 1.5035 142.7 23.9  42d  84
2024 11 12 17  00 47 49.633   +05 35 53.41  .59182 1.5039 142.7 23.9  42d  84
2024 11 12 18  00 47 51.782   +05 35 47.03  .59243 1.5043 142.7 23.9  42d  84
2024 11 12 19  00 47 53.931   +05 35 40.70  .59304 1.5047 142.6 23.9  42d  84
2024 11 12 20  00 47 56.081   +05 35 34.42  .59365 1.5051 142.6 23.9  42d  84
2024 11 12 21  00 47 58.232   +05 35 28.17  .59426 1.5055 142.6 23.9  42d  84
2024 11 12 22  00 48 00.382   +05 35 21.97  .59486 1.5059 142.5 23.9  42d  84
2024 11 12 23  00 48 02.534   +05 35 15.81  .59547 1.5063 142.5 23.9  42d  84
2024 11 13 00  00 48 04.685   +05 35 09.69  .59608 1.5067 142.5 23.9  42d  84
2024 11 13 01  00 48 06.838   +05 35 03.62  .59669 1.5071 142.4 23.9  42d  84
2024 11 13 02  00 48 08.990   +05 34 57.58  .59730 1.5075 142.4 23.9  42d  84
2024 11 13 03  00 48 11.144   +05 34 51.59  .59791 1.5079 142.4 23.9  42d  84
2024 11 13 04  00 48 13.298   +05 34 45.64  .59852 1.5083 142.3 23.9  42d  84
2024 11 13 05  00 48 15.452   +05 34 39.74  .59913 1.5087 142.3 23.9  42d  84
2024 11 13 06  00 48 17.607   +05 34 33.87  .59974 1.5092 142.3 23.9  42d  84
2024 11 13 07  00 48 19.762   +05 34 28.05  .60035 1.5096 142.2 23.9  43d  84
2024 11 13 08  00 48 21.918   +05 34 22.26  .60096 1.5100 142.2 23.9  43d  84
2024 11 13 09  00 48 24.074   +05 34 16.52  .60158 1.5104 142.2 23.9  43d  84